Weather History for Orange, MA

Change the Weather History Date:

Tuesday, March 20, 2012

  Actual Average Record
Temperature  
Mean Temperature 58 °F -  
Max Temperature 78 °F 40 °F 78 °F (2012)
Min Temperature 39 °F 21 °F 10 °F (2004)
Degree Days  
Heating Degree Days 7    
Growing Degree Days 8 (Base 50)    
Moisture  
Dew Point 44 °F    
Average Humidity 83    
Maximum Humidity 100    
Minimum Humidity 37    
Precipitation  
Precipitation 0.00 in - - ()
Sea Level Pressure  
Sea Level Pressure 30.29 in    
Wind  
Wind Speed 1 mph (South)    
Max Wind Speed 12 mph    
Max Gust Speed -    
Visibility 6 miles    
Events      
Averages and records for this station are not official NWS values.
T = Trace of Precipitation, MM = Missing Value Source: NWS Daily Summary

Daily Weather History Graph

Daily Weather History Graph

Search for Another Location

Airport:

Trip Planner

Search our weather history database for the weather conditions in past years. The results will help you decide how hot, cold, wet, or windy it might be!

Date:

Astronomy

Mar. 20, 2012 Rise Set
Actual Time 6:51 AM EDT 7:01 PM EDT
Civil Twilight 6:23 AM EDT 7:30 PM EDT
Nautical Twilight 5:50 AM EDT 8:03 PM EDT
Astronomical Twilight 5:16 AM EDT 8:36 PM EDT
Moon 5:34 AM EDT (3/20) 5:26 PM EDT (3/20)
Length of Visible Light 13h 06m
Length of Day
12h 10m
Waning Crescent, 4% of the Moon is Illuminated
Mar 20
Waning Crescent
Mar 22
New
Mar 30
First Quarter
Apr 6
Full
Apr 13
Last Quarter

Hourly Weather History & Observations

Time (EDT) Temp. Dew Point Humidity Pressure Visibility Wind Dir Wind Speed Gust Speed Precip Events Conditions
12:52 AM 46.0 °F 44.1 °F 93% 30.26 in 10.0 mi Calm Calm - N/A   Clear
1:52 AM 44.1 °F 42.1 °F 93% 30.26 in 8.0 mi Calm Calm - N/A   Clear
2:52 AM 43.0 °F 42.1 °F 97% 30.26 in 8.0 mi Calm Calm - N/A   Clear
3:52 AM 42.1 °F 41.0 °F 96% 30.27 in 7.0 mi Calm Calm - N/A   Clear
4:17 AM 41.0 °F 41.0 °F 100% 30.27 in 1.8 mi Calm Calm - N/A   Clear
4:26 AM 41.0 °F 39.2 °F 93% 30.27 in 3.0 mi Calm Calm - N/A   Clear
4:52 AM 41.0 °F 41.0 °F 100% 30.28 in 3.0 mi Calm Calm - N/A   Clear
5:42 AM 39.2 °F 39.2 °F 100% 30.30 in 1.5 mi Calm Calm - N/A   Clear
5:44 AM 39.2 °F 39.2 °F 100% 30.30 in 1.0 mi Calm Calm - N/A   Clear
5:52 AM 39.9 °F 39.0 °F 97% 30.30 in 1.2 mi Calm Calm - N/A   Clear
5:54 AM 39.2 °F 39.2 °F 100% 30.30 in 2.0 mi Calm Calm - N/A   Clear
6:03 AM 39.2 °F 39.2 °F 100% 30.30 in 5.0 mi Calm Calm - N/A   Clear
6:48 AM 39.2 °F 39.2 °F 100% 30.30 in 2.0 mi Calm Calm - N/A   Clear
6:52 AM 39.9 °F 39.0 °F 97% 30.31 in 4.0 mi Calm Calm - N/A   Partly Cloudy
7:09 AM 39.2 °F 39.2 °F 100% 30.31 in 1.8 mi Calm Calm - N/A   Partly Cloudy
7:11 AM 39.2 °F 39.2 °F 100% 30.31 in 0.8 mi Calm Calm - N/A   Mist
7:49 AM 41.0 °F 41.0 °F 100% 30.31 in 1.2 mi Calm Calm - N/A   Partly Cloudy
7:52 AM 42.1 °F 41.0 °F 96% 30.32 in 2.5 mi Calm Calm - N/A   Partly Cloudy
7:59 AM 42.8 °F 42.8 °F 100% 30.31 in 4.0 mi Calm Calm - N/A   Clear
8:52 AM 48.0 °F 44.1 °F 86% 30.32 in 10.0 mi Calm Calm - N/A   Clear
9:52 AM 55.9 °F 46.0 °F 69% 30.32 in 10.0 mi Calm Calm - N/A   Clear
10:52 AM 60.1 °F 46.9 °F 62% 30.32 in 10.0 mi Calm Calm - N/A   Clear
11:52 AM 66.9 °F 48.0 °F 51% 30.30 in 10.0 mi SE 4.6 mph - N/A   Clear
12:52 PM 72.0 °F 48.9 °F 44% 30.28 in 10.0 mi South 6.9 mph - N/A   Clear
1:52 PM 75.0 °F 48.9 °F 40% 30.26 in 10.0 mi South 9.2 mph - N/A   Clear
2:52 PM 77.0 °F 48.9 °F 37% 30.24 in 10.0 mi South 11.5 mph - N/A   Clear
4:52 PM 77.0 °F 50.0 °F 39% 30.22 in 10.0 mi South 9.2 mph - N/A   Clear
7:52 PM 66.0 °F 53.1 °F 63% 30.24 in 10.0 mi South 8.1 mph - N/A   Clear
8:52 PM 61.0 °F 51.1 °F 70% 30.27 in 10.0 mi South 6.9 mph - N/A   Clear
9:52 PM 61.0 °F 51.1 °F 70% 30.29 in 10.0 mi South 4.6 mph - N/A   Clear
10:52 PM 57.9 °F 51.1 °F 78% 30.31 in 10.0 mi South 4.6 mph - N/A   Clear